This demonstration page uses our WeatherBlox Daily Observations layout. Learn more.

Left ArrowRight Arrow

41.12389, -100.76542

Hourly Observations for November 20, 2015

Temp ( °F °C ) Dew Point ( °F °C ) Humidity (%) Winds ( mph kmh ) Pressure ( in mb ) Visibility ( mi km ) Precip ( " mm )
12:53 am 00:53 Cloudy 38 3.3 22 -5.6 52 52 VRB 5 7 30.02 1017 10 16 0.00 0.00
1:53 am 01:53 Cloudy 37 2.8 22 -5.6 54 54 S 8 13 29.99 1016 10 16 0.00 0.00
2:53 am 02:53 Mostly Cloudy 36 2.2 23 -5 59 59 VRB 5 7 29.98 1015 10 16 0.00 0.00
3:53 am 03:53 Cloudy 35 1.7 24 -4.4 64 64 SE 9 15 29.92 1013 10 16 0.00 0.00
4:53 am 04:53 Cloudy 35 1.7 25 -3.9 67 67 SE 7 11 29.93 1014 10 16 0.00 0.00
5:53 am 05:53 Cloudy 35 1.7 25 -3.9 67 67 ESE 9 15 29.88 1012 10 16 0.00 0.00
6:53 am 06:53 Cloudy 35 1.7 25 -3.9 67 67 SSE 8 13 29.87 1011 10 16 0.00 0.00
7:53 am 07:53 Cloudy 35 1.7 25 -3.9 67 67 SSE 8 13 29.86 1011 10 16 0.00 0.00
8:53 am 08:53 Mostly Cloudy 37 2.8 26 -3.3 65 65 S 8 13 29.86 1011 10 16 0.00 0.00
9:53 am 09:53 Sunny 39 3.9 27 -2.8 62 62 W 5 7 29.86 1011 10 16 0.00 0.00
10:53 am 10:53 Partly Cloudy 40 4.4 28 -2.2 63 63 WNW 6 9 29.88 1012 10 16 0.00 0.00
11:53 am 11:53 Cloudy 39 3.9 27 -2.8 62 62 N 17 28 29.93 1014 10 16 0.00 0.00
12:53 pm 12:53 Mostly Cloudy 36 2.2 29 -1.7 76 76 N 16 26 29.95 1014 10 16 0.00 0.00
1:01 pm 13:01 Mostly Cloudy 35 1.7 28 -2.2 76 76 N 18 30 29.97 1015 10 16 0.00 0.00
1:37 pm 13:37 Cloudy 34 1 27 -3 75 75 N 20 31 30.03 1017 10 16 0.00 0.00
1:53 pm 13:53 Cloudy 34 1.1 26 -3.3 73 73 N 20 31 30.00 1016 10 16 0.00 0.00
2:53 pm 14:53 Cloudy 32 0 23 -5 69 69 N 20 31 30.06 1018 10 16 0.00 0.00
3:53 pm 15:53 Cloudy 31 -0.6 22 -5.6 69 69 N 20 31 30.13 1020 10 16 0.00 0.00
4:53 pm 16:53 Cloudy 30 -1.1 22 -5.6 72 72 NNE 22 35 30.15 1021 10 16 0.00 0.00
5:53 pm 17:53 Cloudy 30 -1.1 22 -5.6 72 72 NNE 20 31 30.20 1023 10 16 0.00 0.00
7:53 pm 19:53 Cloudy 28 -2.2 22 -5.6 78 78 NNE 17 28 30.31 1027 10 16 0.00 0.00
8:19 pm 20:19 Cloudy 28 -2.2 22 -5.6 78 78 N 15 24 30.39 1029 10 16 0.00 0.00
8:53 pm 20:53 Cloudy 28 -2.2 21 -6.1 75 75 NNE 20 31 30.35 1028 10 16 0.00 0.00
9:49 pm 21:49 Mostly Cloudy 27 -3 21 -6 80 80 NNE 8 13 30.48 1032 10 16 0.00 0.00
9:53 pm 21:53 Cloudy 27 -2.8 21 -6.1 78 78 NNE 9 15 30.40 1029 10 16 0.00 0.00
10:53 pm 22:53 Cloudy 28 -2.2 19 -7.2 69 69 NNE 13 20 30.41 1030 10 16 0.00 0.00
11:53 pm 23:53 Cloudy 26 -3.3 19 -7.2 75 75 N 10 17 30.45 1031 10 16 0.00 0.00

Powered by AerisWeather